Regional Weather Roundup
Issued by NWS

Home | Current Version | Previous Version | Graphics & Text | Print | Product List | Glossary On
Versions: 1 2 3 4 5 6 7 8 9 10 11 12 13 14 15 16 17 18 19 20 21 22 23 24 25 26 27 28 29 30 31 32 33 34 35 36 37 38 39 40 41 42 43 44 45 46 47 48 49 50
000
ASUS45 KBOU 301307
RWRCO

WEATHER ROUNDUP FOR COLORADO
NATIONAL WEATHER SERVICE DENVER/BOULDER CO
700 AM MDT SAT MAY 30 2015

NOTE: "FAIR" INDICATES FEW OR NO CLOUDS BELOW 12000 FEET WITH NO
SIGNIFICANT WEATHER AND/OR OBSTRUCTIONS TO VISIBILITY.

COZ001>005-013-030-031-301400-
...NORTHWEST COLORADO...

CITY           SKY/WX    TMP DP  RH WIND       PRES   REMARKS
CRAIG          SUNNY     41  38  89 CALM      30.31S
HAYDEN         SUNNY     43  34  70 E7        30.32S
MEEKER         SUNNY     43  36  76 E6        30.32R
MOUNT WERNER   NOT AVBL
STEAMBOAT SPGS SUNNY     37  35  92 W3        30.34S
WALDEN         SUNNY     34  32  93 CALM      30.38F
$$

COZ006>008-011-301400-
...WEST CENTRAL VALLEYS...

CITY           SKY/WX    TMP DP  RH WIND       PRES   REMARKS
GRAND JUNCTION SUNNY     54  41  61 SE9       30.24R
MONTROSE       SUNNY     48  38  68 SE5       30.31R
EAGLE          SUNNY     48  46  93 CALM      30.40S
RIFLE          SUNNY     45  39  79 CALM      30.30R
DELTA          SUNNY     53  39  59 NE6       30.29R
NUCLA          SUNNY     48  36  61 SE10      30.32R
$$

COZ017>023-064>068-301400-
...SOUTHWEST COLORADO...

CITY           SKY/WX    TMP DP  RH WIND       PRES   REMARKS
DURANGO        SUNNY     43  34  70 N5        30.31R
CORTEZ         SUNNY     42  35  76 E6        30.28R
PAGOSA SPRINGS SUNNY     44  31  60 CALM      30.37R
TELLURIDE      SUNNY     40  30  65 SE6       30.44R
WOLF CREEK PAS NOT AVBL
$$

COZ009-010-012-014-032>034-037-058>063-301400-
...CENTRAL COLORADO...

CITY           SKY/WX    TMP DP  RH WIND       PRES   REMARKS
ASPEN          SUNNY     38  32  79 S5        30.37R
BUENA VISTA    MOSUNNY   41  33  71 NW9       30.40S
COPPER MTN     SUNNY     34  21  60 W6        30.53R WCI  29
BERTHOUD PASS  FAIR      27  19  74 NW14      30.54R WCI  15
COTTONWOOD PAS MOSUNNY   41  32  70 CALM      30.45S
GUNNISON       SUNNY     36  30  80 CALM      30.44R
KREMMLING      FOG       34  32  93 CALM      30.42R VSB 1/2
LEADVILLE      MOSUNNY   31  28  89 CALM      30.45R
MONARCH PASS   SUNNY     30  28  93 SW23      30.62S WCI  17
SALIDA         MOSUNNY   45  39  78 W5        30.45F
SUNLIGHT       SUNNY     39  30  70 CALM        N/A
WILKERSON PASS FOG       32  32 100 W8        30.51R VSB<1/4 WCI  25
$$

COZ069>075-301400-
...SAN LUIS VALLEY/SANGRE DE CRISTO MOUNTAINS...

CITY           SKY/WX    TMP DP  RH WIND       PRES   REMARKS
ALAMOSA        SUNNY     42  36  79 SW5       30.37R
LA VETA PASS   SUNNY    N/A N/A N/A MISG      30.44S
SAGUACHE       SUNNY     41  32  70 N10       30.40R
$$

COZ035-036-038>040-301400-
...NORTHERN COLORADO FRONT RANGE...

CITY           SKY/WX    TMP DP  RH WIND       PRES   REMARKS
DENVER INTL AP SUNNY     46  43  89 CALM      30.29S
DMNS CITY PARK   N/A     55  45  68 E1        30.28S
AURORA         MOSUNNY   47  43  87 W1        30.30S
FRONT RANGE AP NOT AVBL
ERIE MUNI ARPT SUNNY     47  46  96 CALM      30.29S
BOULDER MUN AP SUNNY     50  45  81 CALM      30.29S
CENTENNIAL     MOSUNNY   48  44  86 S3        30.29S
BROOMFIELD     SUNNY     48  46  93 CALM      30.30S
FORT COLLINS   PTSUNNY   48  46  93 E5        30.30S
LONGMONT       SUNNY     54  48  82 CALM      30.31S
$$

COZ041-046-047-076>085-087-088-301400-
...PIKES PEAK/PALMER DIVIDE AND SOUTHERN FOOTHILLS...

CITY           SKY/WX    TMP DP  RH WIND       PRES   REMARKS
COLO. SPRINGS  CLOUDY    47  45  93 SE5       30.32S
A. F. ACADEMY  CLOUDY    45  45  99 S3        30.32S
ELLICOTT       SUNNY    N/A N/A N/A NE3       30.32S
FALCON         CLOUDY    44  44  99 SW6       30.34S FOG
FORT CARSON    NOT AVBL
LIMON          SUNNY     45  43  93 CALM      30.31R
MONUMENT HILL  SUNNY     43  41  93 MISG      30.33S
TRINIDAD       SUNNY     49  46  90 SW6       30.32F
$$

COZ042>045-048>051-090-091-301400-
...NORTHEAST COLORADO...

CITY           SKY/WX    TMP DP  RH WIND       PRES   REMARKS
GREELEY ARPT   SUNNY     46  45  93 E6        30.29F
AKRON          CLOUDY    47  43  86 NW6       30.30R
BURLINGTON     CLOUDY    48  44  86 N10       30.31R
WRAY           CLOUDY    48  44  88 NW6       30.33R
STERLING       CLOUDY    48  45  87 NE7       30.29S
HOLYOKE        CLOUDY    48  43  81 NE5       30.32R
FORT MORGAN    SUNNY     48  45  90 CALM      30.29F
$$

COZ086-089-092>099-301400-
...SOUTHEAST COLORADO...

CITY           SKY/WX    TMP DP  RH WIND       PRES   REMARKS
PUEBLO         SUNNY     52  49  89 CALM      30.29S
LA JUNTA       SUNNY     52  46  80 NE5       30.31R
LAMAR          PTSUNNY   51  48  89 CALM      30.30R
SPRINGFIELD      N/A     49  47  93 NE8       30.31R
$$


USA.gov is the U.S. government's official web portal to all federal, state and local government web resources and services.